Location: Crab Orchard
(37.7292°N, 88.8042°W)
Time: 15:20:24
(UTC+00:00)

H-2A R/B - Pass Details

Date: 08 December 2019
Orbit: 501 x 541 km, 97.3° (Epoch: 19 January)

Event Time Altitude Azimuth Distance (km) Brightness Sun altitude
Rises 23:14:19 0° 160° (SSE) 2,609 6.3 -7.6°
Reaches altitude 10° 23:16:25 10° 157° (SSE) 1,722 5.4 -8.0°
Maximum altitude 23:20:05 62° 76° (ENE) 573 2.6 -8.7°
Drops below altitude 10° 23:23:44 10° 356° (N) 1,720 5.2 -9.3°
Sets 23:25:50 0° 353° (N) 2,606 6.1 -9.7°
